Regional Weather Roundup
Issued by NWS

Home | Current Version | Previous Version | Text Only | Print | Product List | Glossary On
Versions: 1 2 3 4 5 6 7 8 9 10 11 12 13 14 15 16 17 18 19 20 21 22 23 24 25 26 27 28 29 30 31 32 33 34 35 36 37 38 39 40 41 42 43 44 45 46 47 48 49 50
000
ASUS43 KDTX 282010
RWRMI
MICHIGAN HOURLY REGIONAL WEATHER ROUNDUP
NATIONAL WEATHER SERVICE DETROIT/PONTIAC MI
300 PM EST SUN DEC 28 2014

NOTE: "FAIR" INDICATES FEW OR NO CLOUDS BELOW 12,000 FEET WITH NO
SIGNIFICANT WEATHER AND/OR OBSTRUCTION TO VISIBILITY.

MIZ047>049-052>055-059>063-066>070-074>076-081>083-282100-
SOUTHEAST LOWER MICHIGAN

CITY           SKY/WX    TMP DP  RH WIND       PRES   REMARKS
ADRIAN         CLOUDY    35  25  66 NW9       30.10R
ALMA           MOSUNNY   34  21  59 W12       30.08R
ANN ARBOR      PTSUNNY   36  23  59 NW12      30.08R
BAD AXE        SUNNY     32  22  67 W13       30.04S
DETROIT CITY   PTSUNNY   38  21  50 W9        30.08R
DETROIT        CLOUDY    37  23  56 W8        30.09R
FLINT          PTSUNNY   35  21  56 W12       30.07S
GROSSE ILE     CLOUDY    37  25  60 NW8       30.07R
HILLSDALE      PTSUNNY   34  25  68 W9        30.09R
HOWELL         PTSUNNY   34  21  60 W14       30.07R

CITY           SKY/WX    TMP DP  RH WIND       PRES   REMARKS
JACKSON        PTSUNNY   36  22  56 W10       30.08R
LAMBERTVILLE   CLOUDY    37  27  65 NW7       30.11R
LANSING        PTSUNNY   33  21  61 W14       30.09S
LAPEER         NOT AVBL
MASON          PTSUNNY   33  21  61 W10       30.08S
MONROE         CLOUDY    37  27  65 W9        30.08R
MT. CLEMENS    PTSUNNY   36  21  54 W10       30.04R
PONTIAC        PTSUNNY   36  18  48 W15       30.05R
PORT HOPE        N/A     34  18  52 W10G17    30.01R
PORT HURON     PTSUNNY   36  21  55 W6        30.06R
TRI CITIES     SUNNY     36  21  54 W12       30.07R
YPSILANTI      PTSUNNY   39  20  46 NW12      30.09R
$$
MIZ043>046-050>051-056>058-064>065-071>073-077>080-282100-
SOUTHWEST LOWER MICHIGAN

CITY           SKY/WX    TMP DP  RH WIND       PRES   REMARKS
BATTLE CREEK   CLOUDY    35  21  56 W10       30.10R
BENTON HARBOR  PTSUNNY   31  23  72 SW12      30.14R
BIG RAPIDS     CLOUDY    31  23  72 W7        30.07R
COLDWATER      PTSUNNY   36  22  58 W8        30.10R
HOLLAND        CLOUDY    34  22  61 W10       30.12S
GRAND RAPIDS   MOSUNNY   35  21  56 W15       30.09S
KALAMAZOO      CLOUDY    35  21  56 W12       30.12R
MARSHALL       PTSUNNY   35  23  62 W10G18    30.09S
MUSKEGON       PTSUNNY   32  21  64 NW13      30.12R
$$
MIZ016>042-282100-
NORTHERN LOWER MICHIGAN

CITY           SKY/WX    TMP DP  RH WIND       PRES   REMARKS
ALPENA         CLOUDY    31  18  58 W14G22    30.01R
BEAVER ISLAND  MOSUNNY   28  19  69 W10G16    30.04R
BELLAIRE       CLOUDY    30  19  65 W8        30.06R
CADILLAC       CLOUDY    28  20  70 W13       30.03R
CHARLEVOIX     CLOUDY    28  20  71 W14       30.07S
FRANKFORT      MOCLDY    29  21  71 NW9       30.09R
GAYLORD        CLOUDY    26  20  77 W16G22    29.99S
GRAYLING       PTSUNNY   28  19  67 W12G18    30.02R
HARBOR SPRINGS CLOUDY    28  19  70 W12G20    30.02S
HOUGHTON LAKE  CLOUDY    29  19  66 W12       30.03R
MANISTEE       CLOUDY    28  19  69 NW9       30.10R
OSCODA         SUNNY     36  18  49 W14       30.01R
PELLSTON       FLURRIES  27  21  78 W13       30.02R
TRAVERSE CITY  CLOUDY    29  19  66 W10       30.06S
$$
MIZ007>008-015-282100-
EASTERN UPPER MICHIGAN

CITY           SKY/WX    TMP DP  RH WIND       PRES   REMARKS
KINROSS        CLOUDY    25  21  86 W14G21    29.99R
MACKINAC ISLAN CLOUDY    27  20  76 W15       30.00S
NEWBERRY       LGT SNOW  22  20  92 W10       30.01R VSB 1
S. S. MARIE    LGT SNOW  23  19  85 NW10      29.96F FOG
$$
MIZ004>006-011>014-085-282100-
CENTRAL UPPER MICHIGAN

CITY           SKY/WX    TMP DP  RH WIND       PRES   REMARKS
MANISTIQUE       N/A     25  17  72 W12G18    30.05R
ESCANABA       MOSUNNY   23  12  63 W13G20    30.07R
MENOMINEE      PTSUNNY   25  16  68 NW5       30.09R
SAWYER-GWINN   SUNNY     19  10  68 NW16G22   30.03R
$$
MIZ001>003-009>011-084-282100-
WESTERN UPPER MICHIGAN

CITY           SKY/WX    TMP DP  RH WIND       PRES   REMARKS
IRON MOUNTAIN    N/A     22  10  60 NW10      30.05R
HOUGHTON       LGT SNOW  13   6  74 NW15      30.07R WCI  -3
COPPER HARBOR    N/A     18  12  77 N14       30.09R
IRONWOOD       CLOUDY    14   9  79 NW10      30.10R
$$

ABBREVIATIONS USED IN REMARKS
   TC - TEMPERATURE IN CELSIUS
  WCI - WIND CHILL INDEX
   HX - HEAT INDEX
  VSB - VISIBILITY



USA.gov is the U.S. government's official web portal to all federal, state and local government web resources and services.